Regional Weather Roundup
Issued by NWS Little Rock, AR

Home | Current Version | Previous Version | Text Only | Print | Product List | Glossary On
Versions: 1 2 3 4 5 6 7 8 9 10 11 12 13 14 15 16 17 18 19 20 21 22 23 24 25 26 27 28 29 30 31 32 33 34 35 36 37 38 39 40 41 42 43 44 45 46 47 48 49 50
000
ASUS44 KLZK 110105
RWRLZK

WEATHER ROUNDUP FOR ARKANSAS
NATIONAL WEATHER SERVICE LITTLE ROCK AR
700 PM CST WED FEB 10 2016

NOTE: "FAIR" INDICATES FEW OR NO CLOUDS BELOW 12,000 FEET WITH NO
SIGNIFICANT WEATHER AND/OR OBSTRUCTIONS TO VISIBILITY.

ARZ001-003-010-029-110200-
NORTHWEST ARKANSAS

CITY           SKY/WX    TMP DP  RH WIND       PRES   REMARKS
FAYETTEVILLE   CLEAR     44  26  49 S3        29.98S
FORT SMITH     CLEAR     51  25  36 CALM      30.00S
HARRISON       CLEAR     48  19  31 SW3       29.99R
BENTONVILLE    CLEAR    N/A N/A N/A SW7       29.97F
ROGERS         CLEAR     46  24  42 CALM      29.97S
SILOAM SPGS    CLEAR     48  25  40 S7        29.97F
HIGHFILL       CLEAR     46  25  43 S3        29.96S
SPRINGDALE     CLEAR     48  23  37 SW5       29.99S
$$

ARZ004-005-016-110200-
NORTH CENTRAL ARKANSAS

CITY           SKY/WX    TMP DP  RH WIND       PRES   REMARKS
BATESVILLE     CLEAR     41  18  38 SE7       30.07R
FLIPPIN        PTCLDY    46  18  31 SE3       29.99R
MTN HOME       CLOUDY    40  19  43 E3        30.00R HAZE
$$

ARZ040-041-110200-
WEST CENTRAL ARKANSAS

CITY           SKY/WX    TMP DP  RH WIND       PRES   REMARKS
MENA           CLEAR     55  32  41 SW7       30.05S
MOUNT IDA      CLEAR     53  28  38 VRB5      30.01F
$$

ARZ009-017-025-026-028-110200-
NORTHEAST ARKANSAS

CITY           SKY/WX    TMP DP  RH WIND       PRES   REMARKS
JONESBORO      CLEAR     30  21  69 E5        30.11R WCI  25
NEWPORT        CLEAR     34  21  59 SE10      30.09S WCI  26
WALNUT RIDGE   CLEAR     32  16  51 SE10      30.10S WCI  24
BLYTHEVILLE    CLEAR     30  16  56 E10       30.15S WCI  21
$$

ARZ022-023-033-042-044-110200-
CENTRAL ARKANSAS

CITY           SKY/WX    TMP DP  RH WIND       PRES   REMARKS
LITTLE ROCK    CLEAR     46  24  42 S7        30.05F
N LITTLE ROCK  CLEAR     49  26  41 S9        30.05F
JACKSONVILLE   CLEAR     48  23  37 S7        30.03F
SEARCY         CLEAR     39  25  56 SE7       30.07F
HOT SPRINGS    CLEAR     51  27  39 SW6       30.05F
RUSSELLVILLE   CLEAR     40  26  57 CALM      30.02R
CLINTON          N/A     36  25  64 CALM      30.04R
$$

ARZ036-110200-
EAST ARKANSAS

CITY           SKY/WX    TMP DP  RH WIND       PRES   REMARKS
WEST MEMPHIS   CLEAR     33  22  63 SE6       30.10F WCI  28
$$

ARZ050-053-066-070-073-110200-
SOUTHWEST ARKANSAS

CITY           SKY/WX    TMP DP  RH WIND       PRES   REMARKS
ARKADELPHIA    FAIR      46  29  52 CALM      30.07F
CAMDEN         CLEAR     50  25  37 S6        30.09F
TEXARKANA      CLEAR     55  31  39 S7        30.08F
EL DORADO      CLEAR     48  28  46 S6        30.11F
DE QUEEN       CLEAR     52  32  46 CALM      30.05F
$$

ARZ056-057-069-110200-
SOUTHEAST ARKANSAS

CITY           SKY/WX    TMP DP  RH WIND       PRES   REMARKS
PINE BLUFF     CLEAR     46  25  43 S6        30.08F
STUTTGART      CLEAR     43  28  56 SE8       30.07F
MONTICELLO     CLEAR     48  25  40 S6        30.10F

$$





USA.gov is the U.S. government's official web portal to all federal, state and local government web resources and services.